When you browse on this site, cookies collect data to enhance your experience and personalize the content and advertising you see.
Visit our Privacy Policy to learn more. By continuing to use the site, you agree to this use of cookies and data.
  • In Italy
  • List of Countries
  • For 7 days
  • Water Temperature
  • Satellite Maps
  • Weather Map
  • Weather Widgets
  • user-avatar
    Login

    Hourly Weather Fier

    Today, 26 March, Tuesday

    Time Temperature Precipitation Wind Pressure Humidity
    00:00 +13°C° 0 mm 2 mps 756 mmHg 66%
    01:00 +13°C° 0 mm 2 mps 755 mmHg 66%
    02:00 +13°C° 0 mm 2 mps 755 mmHg 65%
    03:00 +13°C° 0 mm 2 mps 755 mmHg 64%
    04:00 +13°C° 0 mm 2 mps 755 mmHg 64%
    05:00 +13°C° 0 mm 2 mps 756 mmHg 63%
    06:00 +14°C° 0 mm 2 mps 756 mmHg 63%
    07:00 +14°C° 0 mm 1 mps 756 mmHg 63%
    08:00 +16°C° 0 mm 1 mps 756 mmHg 56%
    09:00 +19°C° 0 mm 1 mps 756 mmHg 50%
    10:00 +20°C° 0 mm 1 mps 756 mmHg 43%
    11:00 +20°C° 0 mm 2 mps 756 mmHg 43%
    12:00 +20°C° 0 mm 3 mps 756 mmHg 44%
    13:00 +21°C° 0 mm 4 mps 756 mmHg 44%
    14:00 +20°C° 0 mm 4 mps 756 mmHg 46%
    15:00 +20°C° 0 mm 4 mps 756 mmHg 49%
    16:00 +19°C° 0 mm 4 mps 757 mmHg 51%
    17:00 +18°C° 0 mm 3 mps 757 mmHg 57%
    18:00 +16°C° 0 mm 2 mps 758 mmHg 62%
    19:00 +15°C° 0 mm 1 mps 758 mmHg 68%
    20:00 +14°C° 0 mm 1 mps 759 mmHg 67%
    21:00 +14°C° 0 mm 1 mps 760 mmHg 66%
    22:00 +14°C° 0 mm 1 mps 760 mmHg 66%
    23:00 +13°C° 0 mm 2 mps 761 mmHg 64%

    Tomorrow, 27 March, Wednesday

    Time Temperature Precipitation Wind Pressure Humidity
    00:00 +13°C° 0 mm 2 mps 761 mmHg 62%
    01:00 +13°C° 0 mm 2 mps 761 mmHg 61%
    02:00 +12°C° 0 mm 2 mps 761 mmHg 61%
    03:00 +11°C° 0 mm 3 mps 761 mmHg 62%
    04:00 +10°C° 0 mm 3 mps 761 mmHg 62%
    05:00 +11°C° 0 mm 3 mps 762 mmHg 61%
    06:00 +11°C° 0 mm 3 mps 762 mmHg 59%
    07:00 +12°C° 0 mm 3 mps 762 mmHg 58%
    08:00 +14°C° 0 mm 3 mps 762 mmHg 51%
    09:00 +17°C° 0 mm 2 mps 762 mmHg 44%
    10:00 +19°C° 0 mm 2 mps 762 mmHg 37%
    11:00 +19°C° 0.1 mm 2 mps 762 mmHg 37%
    12:00 +20°C° 0.1 mm 2 mps 762 mmHg 38%
    13:00 +20°C° 0.1 mm 2 mps 762 mmHg 38%
    14:00 +19°C° 0.5 mm 2 mps 762 mmHg 42%
    15:00 +19°C° 0.5 mm 2 mps 762 mmHg 46%
    16:00 +18°C° 0.5 mm 2 mps 762 mmHg 50%
    17:00 +17°C° 1.4 mm 2 mps 762 mmHg 62%
    18:00 +14°C° 1.4 mm 3 mps 762 mmHg 73%
    19:00 +12°C° 1.4 mm 3 mps 763 mmHg 85%
    20:00 +13°C° 0.3 mm 2 mps 763 mmHg 84%
    21:00 +13°C° 0.3 mm 2 mps 763 mmHg 84%
    22:00 +13°C° 0.3 mm 1 mps 764 mmHg 83%
    23:00 +12°C° 0 mm 1 mps 764 mmHg 78%

    Day after tomorrow, 28 March, Thursday

    Time Temperature Precipitation Wind Pressure Humidity
    00:00 +12°C° 0 mm 2 mps 764 mmHg 73%
    01:00 +12°C° 0 mm 2 mps 764 mmHg 67%
    02:00 +12°C° 0 mm 2 mps 764 mmHg 64%
    03:00 +11°C° 0 mm 3 mps 764 mmHg 60%
    04:00 +10°C° 0 mm 3 mps 764 mmHg 56%
    05:00 +10°C° 0 mm 3 mps 764 mmHg 57%
    06:00 +10°C° 0 mm 4 mps 764 mmHg 57%
    07:00 +11°C° 0 mm 4 mps 764 mmHg 57%
    08:00 +12°C° 0 mm 4 mps 764 mmHg 52%
    09:00 +14°C° 0 mm 4 mps 765 mmHg 46%
    10:00 +17°C° 0 mm 4 mps 765 mmHg 41%
    11:00 +18°C° 0 mm 4 mps 765 mmHg 39%
    12:00 +19°C° 0 mm 4 mps 764 mmHg 37%
    13:00 +20°C° 0 mm 4 mps 764 mmHg 35%
    14:00 +20°C° 0 mm 4 mps 764 mmHg 36%
    15:00 +19°C° 0 mm 4 mps 764 mmHg 36%
    16:00 +19°C° 0 mm 4 mps 763 mmHg 37%
    17:00 +17°C° 0 mm 4 mps 764 mmHg 40%
    18:00 +15°C° 0 mm 4 mps 764 mmHg 44%
    19:00 +13°C° 0 mm 4 mps 764 mmHg 48%
    20:00 +12°C° 0 mm 4 mps 765 mmHg 49%
    21:00 +11°C° 0 mm 4 mps 765 mmHg 50%
    22:00 +11°C° 0 mm 4 mps 766 mmHg 50%
    23:00 +10°C° 0 mm 4 mps 766 mmHg 52%

    29 March, Friday

    Time Temperature Precipitation Wind Pressure Humidity
    00:00 +10°C° 0 mm 4 mps 766 mmHg 53%
    01:00 +8°C° 0 mm 4 mps 766 mmHg 54%
    02:00 +8°C° 0 mm 4 mps 766 mmHg 55%
    03:00 +8°C° 0 mm 4 mps 767 mmHg 55%
    04:00 +7°C° 0 mm 4 mps 767 mmHg 55%
    05:00 +8°C° 0 mm 4 mps 767 mmHg 56%
    06:00 +8°C° 0 mm 4 mps 767 mmHg 56%
    07:00 +10°C° 0 mm 4 mps 767 mmHg 56%
    08:00 +12°C° 0 mm 4 mps 767 mmHg 49%
    09:00 +14°C° 0 mm 4 mps 767 mmHg 42%
    10:00 +16°C° 0 mm 5 mps 767 mmHg 36%
    11:00 +17°C° 0 mm 5 mps 767 mmHg 33%
    12:00 +17°C° 0 mm 5 mps 767 mmHg 30%
    13:00 +19°C° 0 mm 5 mps 766 mmHg 27%
    14:00 +19°C° 0 mm 5 mps 766 mmHg 29%
    15:00 +19°C° 0 mm 5 mps 766 mmHg 30%
    16:00 +19°C° 0 mm 6 mps 765 mmHg 32%
    17:00 +16°C° 0 mm 6 mps 766 mmHg 40%
    18:00 +14°C° 0 mm 6 mps 766 mmHg 48%
    19:00 +13°C° 0 mm 6 mps 766 mmHg 56%
    20:00 +12°C° 0 mm 5 mps 766 mmHg 55%
    21:00 +10°C° 0 mm 5 mps 767 mmHg 55%
    22:00 +11°C° 0 mm 4 mps 767 mmHg 54%
    23:00 +10°C° 0 mm 4 mps 767 mmHg 52%

    30 March, Saturday

    Time Temperature Precipitation Wind Pressure Humidity
    00:00 +10°C° 0 mm 4 mps 767 mmHg 50%
    01:00 +8°C° 0 mm 4 mps 767 mmHg 48%
    02:00 +8°C° 0 mm 4 mps 767 mmHg 49%
    03:00 +8°C° 0 mm 4 mps 767 mmHg 50%
    04:00 +8°C° 0 mm 3 mps 767 mmHg 52%
    05:00 +9°C° 0 mm 3 mps 767 mmHg 53%
    06:00 +10°C° 0 mm 3 mps 767 mmHg 54%
    07:00 +10°C° 0 mm 3 mps 767 mmHg 56%
    08:00 +12°C° 0 mm 3 mps 767 mmHg 49%
    09:00 +14°C° 0 mm 3 mps 767 mmHg 43%
    10:00 +18°C° 0 mm 3 mps 766 mmHg 37%
    11:00 +18°C° 0 mm 4 mps 766 mmHg 36%
    12:00 +19°C° 0 mm 4 mps 765 mmHg 35%
    13:00 +20°C° 0 mm 5 mps 765 mmHg 34%
    14:00 +19°C° 0 mm 6 mps 764 mmHg 40%
    15:00 +17°C° 0 mm 7 mps 764 mmHg 45%
    16:00 +16°C° 0 mm 8 mps 763 mmHg 51%
    17:00 +15°C° 0 mm 6 mps 763 mmHg 58%
    18:00 +13°C° 0 mm 5 mps 763 mmHg 66%
    19:00 +11°C° 0 mm 3 mps 763 mmHg 73%
    20:00 +11°C° 0 mm 3 mps 763 mmHg 75%
    21:00 +12°C° 0 mm 2 mps 763 mmHg 77%
    22:00 +10°C° 0 mm 2 mps 763 mmHg 78%
    23:00 +10°C° 0 mm 2 mps 763 mmHg 77%

    31 March, Sunday

    Time Temperature Precipitation Wind Pressure Humidity
    00:00 +10°C° 0 mm 2 mps 762 mmHg 75%
    01:00 +10°C° 0 mm 2 mps 762 mmHg 73%
    02:00 +10°C° 0 mm 2 mps 762 mmHg 71%
    03:00 +10°C° 0 mm 1 mps 761 mmHg 68%
    04:00 +10°C° 0 mm 1 mps 761 mmHg 65%
    05:00 +11°C° 0 mm 1 mps 761 mmHg 62%
    06:00 +12°C° 0 mm 1 mps 761 mmHg 59%
    07:00 +13°C° 0 mm 1 mps 761 mmHg 55%
    08:00 +14°C° 0 mm 1 mps 761 mmHg 50%
    09:00 +16°C° 0 mm 2 mps 761 mmHg 44%
    10:00 +18°C° 0 mm 2 mps 760 mmHg 38%
    11:00 +19°C° 0 mm 3 mps 760 mmHg 39%
    12:00 +19°C° 0 mm 4 mps 759 mmHg 39%
    13:00 +20°C° 0 mm 4 mps 759 mmHg 39%
    14:00 +19°C° 0 mm 5 mps 758 mmHg 42%
    15:00 +19°C° 0 mm 5 mps 758 mmHg 46%
    16:00 +17°C° 0 mm 5 mps 758 mmHg 49%
    17:00 +15°C° 0 mm 4 mps 758 mmHg 59%
    18:00 +14°C° 0 mm 3 mps 758 mmHg 68%
    19:00 +13°C° 0 mm 2 mps 759 mmHg 77%
    20:00 +13°C° 0 mm 2 mps 759 mmHg 79%
    21:00 +12°C° 0 mm 1 mps 759 mmHg 80%
    22:00 +12°C° 0 mm 1 mps 760 mmHg 81%
    23:00 +11°C° 0 mm 1 mps 760 mmHg 81%
    Show more